Spirit of St Louis, MO

2:59 PM CST on December 15, 2019 (GMT -0600)
Spirit Of Saint Louis

Weather History for KSUS - November, 2019

Change the Weather History Date:

Tuesday, November 19, 2019

  Actual Average Record
Temperature  
Mean Temperature 48 °F -  
Max Temperature 60 °F 52 °F 75 °F (2007)
Min Temperature 33 °F 32 °F 19 °F (2000)
Degree Days  
Heating Degree Days 17    
Moisture  
Dew Point 39 °F    
Average Humidity 74    
Maximum Humidity 93    
Minimum Humidity 41    
Precipitation  
Precipitation 0.01 in - - ()
Sea Level Pressure  
Sea Level Pressure 29.87 in    
Wind  
Wind Speed 6 mph (WNW)    
Max Wind Speed 17 mph    
Max Gust Speed 25 mph    
Visibility 10 miles    
Events      
Averages and records for this station are not official NWS values.
T = Trace of Precipitation, MM = Missing Value Source: NWS Daily Summary

Daily Weather History Graph

Daily Weather History Graph

Search for Another Location

Airport or City:

Astronomy

Nov. 19, 2019 Rise Set
Actual Time 6:48 AM CST 4:46 PM CST
Civil Twilight 6:20 AM CST 5:15 PM CST
Nautical Twilight 5:47 AM CST 5:47 PM CST
Astronomical Twilight 5:16 AM CST 6:19 PM CST
Moon 11:41 PM CST (11/19) 12:59 PM CST (11/19)
Length of Visible Light 10h 55m
Length of Day
9h 57m
Waning Gibbous, 51% of the Moon is Illuminated
Nov 19
Waning Gibbous
Nov 19
Last Quarter
Nov 26
New
Dec 4
First Quarter
Dec 11
Full

Hourly Weather History & Observations

Time (CST) Temp. Windchill Dew Point Humidity Pressure Visibility Wind Dir Wind Speed Gust Speed Precip Events Conditions
12:54 AM 48.0 °F - 42.1 °F 80% 29.71 in 10.0 mi Calm Calm - 0.01 in   Overcast
1:54 AM 46.9 °F - 43.0 °F 86% 29.71 in 10.0 mi Calm Calm - N/A   Overcast
2:54 AM 45.0 °F - 43.0 °F 93% 29.70 in 10.0 mi Calm Calm - N/A   Overcast
5:54 AM 43.0 °F 38.2 °F 41.0 °F 93% 29.75 in 10.0 mi WSW 8.1 mph - N/A   Overcast
6:54 AM 45.0 °F 39.7 °F 41.0 °F 86% 29.78 in 10.0 mi WSW 10.4 mph - N/A   Mostly Cloudy
7:50 AM 46.4 °F 41.1 °F 42.8 °F 87% 29.80 in 10.0 mi WNW 11.5 mph 23.0 mph N/A   Mostly Cloudy
8:54 AM 48.0 °F - 42.1 °F 80% 29.84 in 10.0 mi WNW 12.7 mph 21.9 mph N/A   Overcast
9:54 AM 50.0 °F - 41.0 °F 71% 29.85 in 10.0 mi WNW 11.5 mph 23.0 mph N/A   Overcast
10:54 AM 53.1 °F - 41.0 °F 64% 29.86 in 10.0 mi WNW 16.1 mph - N/A   Scattered Clouds
11:54 AM 55.0 °F - 41.0 °F 59% 29.86 in 10.0 mi West 16.1 mph 24.2 mph N/A   Scattered Clouds
12:54 PM 57.9 °F - 39.9 °F 51% 29.87 in 10.0 mi NW 13.8 mph 25.3 mph N/A   Partly Cloudy
1:54 PM 60.1 °F - 37.0 °F 42% 29.88 in 10.0 mi WNW 17.3 mph 24.2 mph 0.00 in   Partly Cloudy
2:54 PM 60.1 °F - 36.0 °F 41% 29.90 in 10.0 mi WNW 16.1 mph - 0.00 in   Partly Cloudy
3:54 PM 59.0 °F - 36.0 °F 42% 29.92 in 10.0 mi WNW 12.7 mph - N/A   Clear
4:54 PM 50.0 °F - 36.0 °F 59% 29.94 in 10.0 mi Calm Calm - N/A   Clear
5:54 PM 45.0 °F - 36.0 °F 71% 29.96 in 10.0 mi Calm Calm - N/A   Clear
6:54 PM 42.1 °F - 36.0 °F 79% 29.98 in 10.0 mi Calm Calm - N/A   Clear
7:54 PM 39.0 °F - 35.1 °F 86% 29.99 in 10.0 mi Calm Calm - N/A   Clear
8:54 PM 36.0 °F - 34.0 °F 93% 30.00 in 10.0 mi Calm Calm - N/A   Clear
9:54 PM 37.0 °F - 34.0 °F 89% 30.01 in 10.0 mi Calm Calm - N/A   Clear
10:54 PM 33.1 °F - 30.9 °F 92% 30.03 in 10.0 mi Calm Calm - N/A   Clear